Sao Paulo, Brazil

2:20 PM BRT on October 01, 2016 (GMT -0300)
Congonhas International

Weather History for SBSP - September, 2013

Change the Weather History Date:

Wednesday, September 25, 2013

  Actual Average Record
Temperature  
Mean Temperature 54 °F -  
Max Temperature 59 °F 72 °F 84 °F (2015)
Min Temperature 49 °F 58 °F 49 °F (2013)
Degree Days  
Heating Degree Days 11    
Growing Degree Days 4 (Base 50)    
Moisture  
Dew Point 46 °F    
Average Humidity 72    
Maximum Humidity 82    
Minimum Humidity 52    
Precipitation  
Precipitation 0.04 in - - ()
Sea Level Pressure  
Sea Level Pressure 30.16 in    
Wind  
Wind Speed 11 mph ()    
Max Wind Speed 17 mph    
Max Gust Speed 30 mph    
Visibility 6.6 miles    
Events Rain    
Averages and records for this station are not official NWS values.
T = Trace of Precipitation, MM = Missing Value Source: Averaged Metar Reports

Daily Weather History Graph

Daily Weather History Graph

Search for Another Location

Airport or City:

Trip Planner

Search our weather history database for the weather conditions in past years. The results will help you decide how hot, cold, wet, or windy it might be!

Date:

Astronomy

Sep. 25, 2013 Rise Set
Actual Time 5:52 AM BRT 6:03 PM BRT
Civil Twilight 5:30 AM BRT 6:26 PM BRT
Nautical Twilight 5:04 AM BRT 6:52 PM BRT
Astronomical Twilight 4:37 AM BRT 7:19 PM BRT
Moon 11:47 PM BRT (9/25) 10:08 AM BRT (9/25)
Length of Visible Light 12h 56m
Length of Day
12h 10m
Waning Gibbous, 64% of the Moon is Illuminated
Sep 25
Waning Gibbous
Sep 27
Last Quarter
Oct 4
New
Oct 11
First Quarter
Oct 18
Full

Hourly Weather History & Observations

Time (BRT) Temp. Dew Point Humidity Pressure Visibility Wind Dir Wind Speed Gust Speed Precip Events Conditions
12:00 AM 59.0 °F 50.0 °F 72% 30.09 in - West 5.8 mph - N/A   Clear
1:00 AM 53.6 °F 48.2 °F 82% 30.09 in 6.2 mi South 13.8 mph - N/A   Overcast
2:00 AM 51.8 °F 44.6 °F 76% 30.06 in 6.2 mi South 11.5 mph - N/A   Overcast
3:00 AM 52 °F 44 °F 66%  in 12 mi South 11.5 mph - -   Overcast
3:00 AM 51.8 °F 44.6 °F 76% 30.06 in 6.2 mi South 11.5 mph - N/A   Overcast
4:00 AM 51.8 °F 44.6 °F 76% 30.06 in 6.2 mi SSW 9.2 mph - N/A   Overcast
5:00 AM 51.8 °F 41.0 °F 67% 30.09 in 6.2 mi SW 8.1 mph - N/A   Mostly Cloudy
6:00 AM 50.0 °F 39.2 °F 66% 30.12 in 6.2 mi SSW 10.4 mph - N/A   Mostly Cloudy
7:00 AM 50.0 °F 39.2 °F 66% 30.12 in - SW 10.4 mph - N/A   Clear
8:00 AM 53.6 °F 41.0 °F 62% 30.15 in 6.2 mi SSW 10.4 mph - N/A   Partly Cloudy
9:00 AM 55 °F 42 °F 52%  in 12 mi South 13.8 mph - -   Mostly Cloudy
9:00 AM 55.4 °F 42.8 °F 63% 30.18 in 6.2 mi South 13.8 mph - N/A   Mostly Cloudy
10:00 AM 59.0 °F 46.4 °F 63% 30.21 in 6.2 mi South 13.8 mph - N/A   Mostly Cloudy
11:00 AM 59.0 °F 44.6 °F 59% 30.21 in 6.2 mi South 15.0 mph - N/A   Mostly Cloudy
12:00 PM 59.0 °F 46.4 °F 63% 30.18 in 6.2 mi South 16.1 mph 29.9 mph N/A   Mostly Cloudy
1:00 PM 59.0 °F 46.4 °F 63% 30.18 in 6.2 mi South 16.1 mph - N/A   Mostly Cloudy
2:00 PM 57.2 °F 48.2 °F 72% 30.15 in 6.2 mi South 16.1 mph - N/A   Mostly Cloudy
2:25 PM 57.2 °F 48.2 °F 72% 30.18 in 6.2 mi South 16.1 mph - N/A   Mostly Cloudy
3:00 PM 56 °F 47 °F 64%  in 12 mi South 15.0 mph - -   Overcast
3:00 PM 57.2 °F 46.4 °F 67% 30.15 in 6.2 mi South 15.0 mph - N/A   Mostly Cloudy
3:30 PM 55.4 °F 50.0 °F 82% 30.18 in 6.2 mi South 13.8 mph - N/A   Mostly Cloudy
4:00 PM 53.6 °F 48.2 °F 82% 30.18 in 6.2 mi South 15.0 mph - N/A   Mostly Cloudy
5:00 PM 53.6 °F 46.4 °F 77% 30.18 in 6.2 mi South 17.3 mph - N/A   Mostly Cloudy
6:00 PM 53.6 °F 46.4 °F 77% 30.18 in 6.2 mi South 13.8 mph - N/A   Mostly Cloudy
6:20 PM 53.6 °F 48.2 °F 82% 30.18 in 3.1 mi South 16.1 mph - N/A   Light Drizzle
7:00 PM 53.6 °F 48.2 °F 82% 30.21 in 3.7 mi South 15.0 mph - N/A   Heavy Drizzle
8:00 PM 53.6 °F 48.2 °F 82% 30.21 in 5.0 mi South 10.4 mph - N/A   Drizzle
9:00 PM 54 °F 48 °F 74%  in 6 mi South 10.4 mph - - Rain Light Drizzle
9:00 PM 53.6 °F 48.2 °F 82% 30.21 in 6.2 mi South 10.4 mph - N/A   Mostly Cloudy
10:00 PM 53.6 °F 48.2 °F 82% 30.24 in 6.2 mi SSE 12.7 mph - N/A   Mostly Cloudy
11:00 PM 53.6 °F 48.2 °F 82% 30.21 in 6.2 mi SSE 11.5 mph - N/A   Mostly Cloudy